TimeCST,TemperatureF,Dew PointF,Humidity,Sea Level PressureIn,VisibilityMPH,Wind Direction,Wind SpeedMPH,Gust SpeedMPH,PrecipitationIn,Events,Conditions,WindDirDegrees,DateUTC
12:00 AM,75,74,98,29.91,9,NW,5.8,,,Rain,Light Rain,320,2013-11-15 06:00:00
3:00 AM,75,74,96,29.87,12,Calm,Calm,,,,Partly Cloudy,,2013-11-15 09:00:00
5:00 AM,73.4,73.4,100,29.86,3.7,NW,6.9,-,N/A,,Unknown,310,2013-11-15 11:00:00
6:00 AM,75,74,97,29.89,1,NNW,11.5,,,Fog,Heavy Fog,330,2013-11-15 12:00:00
6:00 AM,75.2,75.2,100,29.89,0.6,NNW,11.5,-,N/A,Fog,Fog,330,2013-11-15 12:00:00
7:00 AM,75.2,75.2,100,29.89,1.9,NNW,11.5,-,N/A,,Unknown,340,2013-11-15 13:00:00
7:30 AM,75.2,75.2,100,29.92,6.2,North,6.9,-,N/A,,Mostly Cloudy,350,2013-11-15 13:30:00
8:00 AM,75.2,75.2,100,29.92,6.2,North,9.2,-,N/A,Rain,Light Rain,360,2013-11-15 14:00:00
9:00 AM,76,75,96,29.95,3,NNE,6.9,,,Rain,Light Rain,30,2013-11-15 15:00:00
9:00 AM,75.2,75.2,100,29.95,3.1,NNE,6.9,-,N/A,Rain,Light Rain,30,2013-11-15 15:00:00
9:30 AM,75.2,75.2,100,29.95,3.1,ENE,4.6,-,N/A,Rain,Light Rain,60,2013-11-15 15:30:00
10:00 AM,73.4,73.4,100,29.95,3.7,ENE,2.3,-,N/A,Rain,Light Rain,70,2013-11-15 16:00:00
11:00 AM,73.4,73.4,100,29.92,2.5,NNW,2.3,-,N/A,Rain,Rain,330,2013-11-15 17:00:00
12:00 PM,75,74,95,29.90,4,North,2.3,,,Rain,Light Rain,0,2013-11-15 18:00:00
12:00 PM,75.2,73.4,94,29.90,4.3,North,2.3,-,N/A,Rain,Light Rain,360,2013-11-15 18:00:00
1:00 PM,77.0,75.2,94,29.87,5.6,Calm,Calm,-,N/A,Rain,Light Rain,0,2013-11-15 19:00:00
1:35 PM,77.0,75.2,94,29.86,6.2,ENE,2.3,-,N/A,,Mostly Cloudy,60,2013-11-15 19:35:00
2:00 PM,77.0,75.2,94,2.98,6.2,North,5.8,-,N/A,Rain,Light Rain Showers,10,2013-11-15 20:00:00
3:00 PM,79,76,90,29.83,12,,1.2,,,Rain,Light Rain Showers,,2013-11-15 21:00:00
5:00 PM,78.8,77.0,94,29.84,6.2,West,2.3,-,N/A,,Mostly Cloudy,280,2013-11-15 23:00:00
6:00 PM,78,77,94,29.87,12,West,3.5,,,,Partly Cloudy,270,2013-11-16 00:00:00
6:00 PM,78.8,77.0,94,29.85,6.2,West,3.5,-,N/A,,Mostly Cloudy,270,2013-11-16 00:00:00
9:00 PM,76,75,97,29.94,12,West,2.3,,,,Mostly Cloudy,280,2013-11-16 03:00:00